RTU MIREA 1 (RS51S)

Last updated on Sun Jun 21 2026 00:03:20 GMT+0000 (Coordinated Universal Time)

1 61785U 24199BC 26171.41703499 .00049518 00000+0 57966-3 0 9998 2 61785 97.2926 48.2288 0005765 250.5796 109.4839 15.61392673134974
UTC large
Height (km)
Speed (km/s)
/
Latitude / Longitude
Inclination (degrees)
Orbital Period (minutes)
Azimuth
Elevation
Range (km)
Doppler Factor

Next 0 passes for location: London (51.5072 / 0.1276)

No passes found over London.
RTU MIREA 1 (RS51S)